TimeAKDT,TemperatureF,Dew PointF,Humidity,Sea Level PressureIn,VisibilityMPH,Wind Direction,Wind SpeedMPH,Gust SpeedMPH,PrecipitationIn,Events,Conditions,WindDirDegrees,DateUTC
12:53 AM,50.0,46.0,86,30.06,10.0,ENE,6.9,-,N/A,,Scattered Clouds,70,2013-08-13 08:53:00
1:53 AM,50.0,46.9,89,30.05,10.0,NE,4.6,-,N/A,,Scattered Clouds,50,2013-08-13 09:53:00
2:01 AM,50.0,46.4,87,30.04,10.0,NE,5.8,-,N/A,,Mostly Cloudy,50,2013-08-13 10:01:00
2:31 AM,48.2,46.4,93,30.04,10.0,NE,8.1,-,N/A,,Scattered Clouds,50,2013-08-13 10:31:00
2:53 AM,48.9,46.0,90,30.04,10.0,NE,6.9,-,N/A,,Mostly Cloudy,40,2013-08-13 10:53:00
3:03 AM,48.2,46.4,93,30.03,10.0,NE,5.8,-,N/A,,Scattered Clouds,40,2013-08-13 11:03:00
3:12 AM,48.2,46.4,93,30.03,10.0,NE,5.8,-,N/A,,Mostly Cloudy,40,2013-08-13 11:12:00
3:24 AM,48.2,46.4,93,30.03,10.0,NE,6.9,-,N/A,,Partly Cloudy,40,2013-08-13 11:24:00
3:53 AM,48.0,45.0,89,30.02,10.0,NE,6.9,-,N/A,,Scattered Clouds,40,2013-08-13 11:53:00
4:53 AM,44.1,42.1,93,30.02,10.0,NE,5.8,-,N/A,,Scattered Clouds,40,2013-08-13 12:53:00
5:53 AM,43.0,41.0,93,30.01,10.0,NNE,4.6,-,N/A,,Partly Cloudy,20,2013-08-13 13:53:00
6:53 AM,45.0,42.1,90,30.01,10.0,North,5.8,-,N/A,,Scattered Clouds,360,2013-08-13 14:53:00
7:53 AM,46.0,43.0,89,30.01,10.0,North,5.8,-,N/A,,Mostly Cloudy,10,2013-08-13 15:53:00
8:53 AM,51.1,45.0,80,30.00,10.0,North,6.9,-,N/A,,Scattered Clouds,350,2013-08-13 16:53:00
9:53 AM,55.9,46.9,72,29.99,10.0,North,4.6,-,N/A,,Scattered Clouds,10,2013-08-13 17:53:00
10:53 AM,59.0,46.0,62,29.98,10.0,ENE,8.1,-,N/A,,Scattered Clouds,70,2013-08-13 18:53:00
11:53 AM,61.0,48.0,62,29.98,10.0,East,8.1,-,N/A,,Scattered Clouds,80,2013-08-13 19:53:00
12:53 PM,62.1,48.0,60,29.97,10.0,East,8.1,-,N/A,,Scattered Clouds,90,2013-08-13 20:53:00
1:53 PM,63.0,50.0,63,29.96,10.0,SE,11.5,-,N/A,,Scattered Clouds,130,2013-08-13 21:53:00
2:53 PM,63.0,51.1,65,29.94,10.0,SE,10.4,-,N/A,,Scattered Clouds,140,2013-08-13 22:53:00
3:53 PM,64.0,51.1,63,29.93,10.0,SE,12.7,-,N/A,,Scattered Clouds,140,2013-08-13 23:53:00
4:53 PM,64.9,48.9,56,29.91,10.0,SE,11.5,-,N/A,,Scattered Clouds,140,2013-08-14 00:53:00
5:53 PM,64.0,50.0,60,29.90,10.0,SE,9.2,-,N/A,,Mostly Cloudy,140,2013-08-14 01:53:00
6:53 PM,64.9,48.9,56,29.91,10.0,SSE,9.2,-,N/A,,Mostly Cloudy,150,2013-08-14 02:53:00
7:53 PM,64.9,48.0,54,29.88,10.0,SE,8.1,-,N/A,,Mostly Cloudy,130,2013-08-14 03:53:00
8:53 PM,66.0,46.9,50,29.87,10.0,ENE,3.5,-,N/A,,Mostly Cloudy,60,2013-08-14 04:53:00
9:53 PM,62.1,51.1,67,29.85,10.0,NNE,3.5,-,N/A,,Mostly Cloudy,20,2013-08-14 05:53:00
10:53 PM,57.9,50.0,75,29.86,10.0,Calm,Calm,-,N/A,,Mostly Cloudy,0,2013-08-14 06:53:00
11:53 PM,53.1,48.0,83,29.85,10.0,NNE,3.5,-,N/A,,Mostly Cloudy,20,2013-08-14 07:53:00